"Pseudo-MPEC" for P11WLo0

Created 2024 Aug 3 18:22:09 UT using Find_Orb

Click here for an explanation of pseudo-MPECs

 
 Astrometry: 
     P11WLo0* C2024 08 01.45393622 03 03.681-45 35 27.13   ~81Gq 20.13wXNEOCPF51
     P11WLo0  C2024 08 01.46169722 02 58.613-45 34 02.55   ~81Gq 20.23wXNEOCPF51
     P11WLo0  C2024 08 01.46947222 02 53.523-45 32 37.99   ~81Gq 20.21wXNEOCPF51
     P11WLo0 KC2024 08 01.66900522 00 48.754-44 54 30.53   ~81Gq 20.1 GVNEOCP474
     P11WLo0 KC2024 08 01.67101322 00 47.522-44 54 08.39   ~81Gq 20.0 GVNEOCP474
     P11WLo0 KC2024 08 01.67302222 00 46.229-44 53 45.10   ~81Gq 20.3 GVNEOCP474
     P11WLo0 KC2024 08 01.67703922 00 43.673-44 52 59.27   ~81Gq 20.2 GVNEOCP474
     P11WLo0 KC2024 08 02.47956821 52 45.245-42 15 35.93   ~82C7 19.8 GVNEOCP474
     P11WLo0 KC2024 08 02.48096221 52 44.328-42 15 19.01   ~82C7 19.8 GVNEOCP474
     P11WLo0 KC2024 08 02.48235521 52 43.445-42 15 01.76   ~82C7 19.6 GVNEOCP474
     P11WLo0 KC2024 08 02.48374921 52 42.547-42 14 45.28   ~82C7 20.1 GVNEOCP474
     P11WLo0 KC2024 08 02.48514121 52 41.681-42 14 28.00   ~82C7 19.5 GVNEOCP474
     P11WLo0 KC2024 08 02.57495 21 51 44.405-41 56 01.21   ~82Eb 19.4 GVNEOCPR65
     P11WLo0 KC2024 08 02.57847 21 51 42.166-41 55 17.72   ~82Eb 19.6 GVNEOCPR65
     P11WLo0 KC2024 08 02.58064 21 51 40.814-41 54 50.33   ~82Eb 19.7 GVNEOCPR65
     P11WLo0 KC2024 08 02.58281 21 51 39.425-41 54 23.76   ~82Eb 19.7 GVNEOCPR65
     P11WLo0 KC2024 08 02.58498 21 51 38.009-41 53 55.86   ~82Eb 19.6 GVNEOCPR65

Station data:
(474) Mount John Observatory, Lake Tekapo  (S43.987385 E170.464960)  New
   Zealand.  Observers A. C. Gilmore, P. M. Kilmartin. Measurer P. M.
   Kilmartin. 1.0-m f/7.7 reflector + CCD.
(F51) Pan-STARRS 1, Haleakala  (N20.707234 W156.255910)  US/Hawaii.
   Observers J. Bulger, T. Lowe, A. Schultz, M. Willman. Measurers K.
   Chambers, S. Chastel, T. de Boer, L. Denneau, J. Fairlamb, H. Flewelling,
   M. Huber, C.-C. Lin, E. Magnier, Y. Ramanjooloo, R. Wainscoat, R. Weryk.
   1.8-m Ritchey-Chrétien + CCD.
(R65) R. F. Joyce Observatory, Christchurch  (S43.498731 E172.349810)  New
   Zealand.  Observer R. B. Glassey.

Orbital elements:  P11WLo0
   Perihelion 2024 Aug 25.54653 +/- 0.272 TT = 13:07:00 (JD 2460548.04653)
Epoch 2024 Aug  2.0 TT = JDT 2460524.5   Earth MOID: 0.0848      AutoNEOCP
M 346.73635256 +/- 0.21             (J2000 ecliptic)
n   0.56329518 +/- 0.00301          Peri.   16.77737 +/- 0.26
a   1.45204036 +/- 0.00517          Node   315.46275 +/- 0.0042
e   0.2493485 +/- 0.00223           Incl.   27.31339 +/- 0.10
P   1.750/639.084d         H 23.59  G  0.15   U  8.8
q 1.08997626 +/- 0.000719    Q 1.81410447 +/- 0.00969
From 17 observations 2024 Aug. 1-2 (27.1 hr); mean residual 0".21
Residuals in arcseconds: 
240801 F51  .18+  .28-    240801 474  .02-  .18+    240802 R65  .14-  .27+    
240801 F51  .03+  .13+    240802 474  .39+  .01-    240802 R65  .09-  .17-    
240801 F51  .21-  .16+    240802 474  .01-  .07-    240802 R65  .25+  .12+    
240801 474  .27-  .16+    240802 474  .04-  .21+    240802 R65  .18+  .43-    
240801 474  .20+  .49-    240802 474  .23-  .31-    240802 R65  .19-  .34+    
240801 474  .03+  .01-    240802 474  .07-  .00     

Ephemerides (geocentric):
Date (UTC) HH   RA             Dec           delta  r     elong  mag " sig PA
---- --------  ------------   ------------  ------ ------ -----  --- --------
2024 08 03 18  21 40 02.707   -37 35 41.96  .09657 1.1045 157.5 19.7 4.87 150
2024 08 03 19  21 39 38.036   -37 25 51.67  .09640 1.1044 157.7 19.7 5.16 150
2024 08 03 20  21 39 13.382   -37 15 58.88  .09623 1.1044 157.9 19.7 5.45 150
2024 08 03 21  21 38 48.746   -37 06 03.61  .09606 1.1043 158.1 19.7 5.76 150
2024 08 03 22  21 38 24.128   -36 56 05.86  .09589 1.1043 158.3 19.7 6.07 151
2024 08 03 23  21 37 59.528   -36 46 05.63  .09573 1.1042 158.5 19.7 6.39 151
2024 08 04 00  21 37 34.947   -36 36 02.92  .09556 1.1042 158.7 19.7 6.72 151
2024 08 04 01  21 37 10.384   -36 25 57.74  .09540 1.1041 158.9 19.7 7.06 151
2024 08 04 02  21 36 45.841   -36 15 50.09  .09524 1.1041 159.1 19.7 7.41 151
2024 08 04 03  21 36 21.316   -36 05 39.96  .09507 1.1040 159.2 19.7 7.77 151
2024 08 04 04  21 35 56.811   -35 55 27.38  .09491 1.1040 159.4 19.6 8.13 151
2024 08 04 05  21 35 32.326   -35 45 12.33  .09475 1.1039 159.6 19.6 8.51 151
2024 08 04 06  21 35 07.861   -35 34 54.83  .09459 1.1039 159.8 19.6 8.90 152
2024 08 04 07  21 34 43.415   -35 24 34.88  .09444 1.1038 160.0 19.6 9.29 152
2024 08 04 08  21 34 18.990   -35 14 12.48  .09428 1.1037 160.2 19.6 9.69 152
2024 08 04 09  21 33 54.586   -35 03 47.64  .09413 1.1037 160.4 19.6 10.1 152
2024 08 04 10  21 33 30.202   -34 53 20.37  .09397 1.1036 160.6 19.6 10.5 152
2024 08 04 11  21 33 05.840   -34 42 50.66  .09382 1.1036 160.8 19.6 11.0 152
2024 08 04 12  21 32 41.499   -34 32 18.53  .09367 1.1035 161.0 19.6 11.4 152
2024 08 04 13  21 32 17.179   -34 21 43.98  .09352 1.1035 161.2 19.6 11.9 152
2024 08 04 14  21 31 52.881   -34 11 07.02  .09337 1.1034 161.4 19.6 12.3 152
2024 08 04 15  21 31 28.605   -34 00 27.65  .09322 1.1034 161.6 19.5 12.8 153
2024 08 04 16  21 31 04.350   -33 49 45.89  .09307 1.1033 161.8 19.5 13.3 153
2024 08 04 17  21 30 40.119   -33 39 01.73  .09293 1.1033 162.0 19.5 13.8 153
2024 08 04 18  21 30 15.910   -33 28 15.19  .09278 1.1032 162.2 19.5 14.3 153
2024 08 04 19  21 29 51.723   -33 17 26.28  .09264 1.1032 162.4 19.5 14.8 153
2024 08 04 20  21 29 27.560   -33 06 34.99  .09250 1.1031 162.6 19.5 15.3 153
2024 08 04 21  21 29 03.420   -32 55 41.35  .09235 1.1031 162.8 19.5 15.8 153
2024 08 04 22  21 28 39.303   -32 44 45.36  .09221 1.1030 163.0 19.5 16.4 153
2024 08 04 23  21 28 15.210   -32 33 47.03  .09208 1.1030 163.2 19.5 16.9 153
2024 08 05 00  21 27 51.140   -32 22 46.36  .09194 1.1029 163.4 19.5 17.5 153
2024 08 05 01  21 27 27.095   -32 11 43.37  .09180 1.1029 163.6 19.4 18.1 153
2024 08 05 02  21 27 03.074   -32 00 38.07  .09167 1.1028 163.8 19.4 18.6 154
2024 08 05 03  21 26 39.078   -31 49 30.47  .09153 1.1027 164.1 19.4 19.2 154
2024 08 05 04  21 26 15.106   -31 38 20.57  .09140 1.1027 164.3 19.4 19.8 154
2024 08 05 05  21 25 51.159   -31 27 08.40  .09127 1.1026 164.5 19.4 20.4 154
2024 08 05 06  21 25 27.237   -31 15 53.95  .09114 1.1026 164.7 19.4 21.1 154
2024 08 05 07  21 25 03.340   -31 04 37.25  .09101 1.1025 164.9 19.4 21.7 154
2024 08 05 08  21 24 39.469   -30 53 18.30  .09088 1.1025 165.1 19.4 22.4 154
2024 08 05 09  21 24 15.623   -30 41 57.11  .09076 1.1024 165.3 19.4 23.0 154
2024 08 05 10  21 23 51.803   -30 30 33.71  .09063 1.1024 165.5 19.4 23.7 154
2024 08 05 11  21 23 28.010   -30 19 08.09  .09051 1.1023 165.7 19.3 24.4 154
2024 08 05 12  21 23 04.242   -30 07 40.28  .09038 1.1023 165.9 19.3 25.0 154
2024 08 05 13  21 22 40.501   -29 56 10.28  .09026 1.1022 166.1 19.3 25.7 154
2024 08 05 14  21 22 16.787   -29 44 38.11  .09014 1.1022 166.4 19.3 26.4 154
2024 08 05 15  21 21 53.099   -29 33 03.79  .09003 1.1021 166.6 19.3 27.2 154
2024 08 05 16  21 21 29.439   -29 21 27.33  .08991 1.1021 166.8 19.3 27.9 155
2024 08 05 17  21 21 05.806   -29 09 48.74  .08979 1.1020 167.0 19.3 28.6 155